Location: Killam
(52.7910°N, 111.8608°W)
Time: 22:45:27
(UTC+00:00)

Injun/Solrad 3 - All Passes

Search period start: 16 February 2026 00:00
Search period end: 26 February 2026 00:00
Orbit: 873 x 983 km, 66.8° (Epoch: 16 February)

Date Brightness Start Highest point End Pass type
(mag) Time Alt. Az. Time Alt. Az. Time Alt. Az.
16 Feb - 00:35:34 10° NW 00:40:22 24° NNE 00:45:16 10° ENE daylight
16 Feb - 02:22:22 10° NW 02:28:16 49° NE 02:34:19 10° ESE visible
16 Feb - 04:08:59 10° NW 04:14:52 50° WSW 04:20:54 10° SSE visible
16 Feb - 05:59:06 10° W 06:00:01 10° W 06:00:57 10° WSW visible
16 Feb - 17:39:47 10° SE 17:42:52 15° ESE 17:45:59 10° ENE daylight
16 Feb - 19:22:27 10° SSW 19:28:15 69° SE 19:34:12 10° NE daylight
16 Feb - 21:09:42 10° W 21:15:10 38° NNW 21:20:46 10° NE daylight
16 Feb - 22:58:47 10° WNW 23:03:20 22° N 23:08:00 10° NE daylight
17 Feb - 00:46:47 10° NW 00:51:50 27° NNE 00:56:59 10° ENE daylight
17 Feb - 02:33:24 10° NW 02:39:28 63° NE 02:45:41 10° SE visible
17 Feb - 04:20:12 10° NW 04:25:44 36° WSW 04:31:24 10° S visible
17 Feb - 17:49:12 10° SSE 17:53:31 22° ESE 17:57:54 10° ENE daylight
17 Feb - 19:33:23 10° SW 19:39:16 88° NW 19:45:18 10° NE daylight
17 Feb - 21:21:17 10° W 21:26:31 31° NNW 21:31:52 10° NE daylight
17 Feb - 23:10:21 10° NW 23:14:52 21° N 23:19:29 10° NE daylight
18 Feb - 00:57:55 10° NW 01:03:15 31° NNE 01:08:42 10° E daylight
18 Feb - 02:44:26 10° NW 02:50:36 82° NE 02:56:54 10° SE visible
18 Feb - 04:31:34 10° NW 04:36:32 26° WSW 04:41:34 10° SSW visible
18 Feb - 17:59:13 10° S 18:04:16 31° ESE 18:09:24 10° NE daylight
18 Feb - 19:44:31 10° SW 19:50:21 67° NW 19:56:22 10° NE daylight
18 Feb - 21:32:56 10° WNW 21:37:55 27° NNW 21:43:02 10° NE daylight
18 Feb - 23:21:49 10° NW 23:26:24 22° N 23:31:04 10° NE daylight
19 Feb - 01:09:01 10° NW 01:14:37 37° NNE 01:20:21 10° E visible
19 Feb - 02:55:31 10° NW 03:01:38 76° SW 03:07:55 10° SSE visible
19 Feb - 04:43:14 10° WNW 04:47:15 18° WSW 04:51:19 10° SW visible
19 Feb - 18:09:35 10° S 18:15:04 44° ESE 18:20:41 10° NE daylight
19 Feb - 19:55:48 10° WSW 20:01:31 51° NW 20:07:24 10° NE daylight
19 Feb - 21:44:36 10° WNW 21:49:23 24° NNW 21:54:15 10° NE daylight
19 Feb - 23:33:10 10° NW 23:37:55 23° NNE 23:42:45 10° ENE daylight
20 Feb - 01:20:04 10° NW 01:25:54 45° NE 01:31:54 10° ESE visible
20 Feb - 03:06:38 10° NW 03:12:36 56° WSW 03:18:44 10° SSE visible
20 Feb - 04:55:36 10° W 04:57:52 12° W 05:00:11 10° WSW visible
20 Feb - 16:38:15 10° SE 16:40:42 13° E 16:43:12 10° ENE daylight
20 Feb - 18:20:13 10° SSW 18:25:58 62° ESE 18:31:52 10° NE daylight
20 Feb - 20:07:14 10° WSW 20:12:46 41° NW 20:18:28 10° NE daylight
20 Feb - 21:56:16 10° WNW 22:00:53 22° N 22:05:35 10° NE daylight
20 Feb - 23:44:25 10° NW 23:49:24 26° NNE 23:54:28 10° ENE daylight
21 Feb - 01:31:05 10° NW 01:37:07 58° NE 01:43:18 10° ESE visible
21 Feb - 03:17:49 10° NW 03:23:30 40° WSW 03:29:19 10° S visible
21 Feb - 16:47:19 10° SSE 16:51:20 19° ESE 16:55:23 10° ENE daylight
21 Feb - 18:31:05 10° SW 18:36:57 84° SE 18:42:59 10° NE daylight
21 Feb - 20:18:47 10° W 20:24:06 33° NNW 20:29:34 10° NE daylight
21 Feb - 22:07:51 10° NW 22:12:24 22° N 22:17:02 10° NE daylight
21 Feb - 23:55:35 10° NW 00:00:50 29° NNE 00:06:12 10° E daylight
22 Feb - 01:42:07 10° NW 01:48:17 75° NE 01:54:34 10° SE visible
22 Feb - 03:29:08 10° NW 03:34:20 29° WSW 03:39:37 10° SSW visible
22 Feb - 16:57:12 10° SSE 17:02:02 28° ESE 17:06:58 10° NE daylight
22 Feb - 18:42:09 10° SW 18:48:01 74° NW 18:54:04 10° NE daylight
22 Feb - 20:30:24 10° W 20:35:29 28° NNW 20:40:42 10° NE daylight
22 Feb - 22:19:22 10° NW 22:23:56 22° N 22:28:35 10° NE daylight
23 Feb - 00:06:41 10° NW 00:12:13 35° NNE 00:17:52 10° E daylight
23 Feb - 01:53:11 10° NW 01:59:21 84° SW 02:05:40 10° SE visible
23 Feb - 03:40:40 10° WNW 03:45:04 21° WSW 03:49:32 10° SSW visible
23 Feb - 17:07:27 10° S 17:12:50 39° ESE 17:18:19 10° NE daylight
23 Feb - 18:53:23 10° WSW 18:59:09 56° NW 19:05:07 10° NE daylight
23 Feb - 20:42:05 10° WNW 20:46:56 25° NNW 20:51:54 10° NE daylight
23 Feb - 22:30:45 10° NW 22:35:27 23° N 22:40:15 10° ENE daylight
24 Feb - 00:17:45 10° NW 00:23:32 42° NE 00:29:27 10° ESE daylight
24 Feb - 02:04:16 10° NW 02:10:21 62° WSW 02:16:33 10° SSE visible
24 Feb - 03:52:41 10° WNW 03:55:43 14° WSW 03:58:47 10° SW visible
24 Feb - 15:37:01 10° ESE 15:38:33 11° E 15:40:05 10° E daylight
24 Feb - 17:18:00 10° SSW 17:23:42 55° ESE 17:29:32 10° NE daylight
24 Feb - 19:04:46 10° WSW 19:10:23 44° NW 19:16:10 10° NE daylight
24 Feb - 20:53:44 10° WNW 20:58:25 23° N 21:03:11 10° NE daylight
24 Feb - 22:42:02 10° NW 22:46:56 25° NNE 22:51:58 10° ENE daylight
25 Feb - 00:28:46 10° NW 00:34:46 53° NE 00:40:55 10° ESE daylight
25 Feb - 02:15:26 10° NW 02:21:16 45° WSW 02:27:13 10° S visible
25 Feb - 15:45:31 10° SE 15:49:08 17° ESE 15:52:48 10° ENE daylight
25 Feb - 17:28:48 10° SSW 17:34:39 76° SE 17:40:40 10° NE daylight
25 Feb - 19:16:17 10° W 19:21:40 36° NNW 19:27:14 10° NE daylight
25 Feb - 21:05:22 10° NW 21:09:56 22° N 21:14:36 10° NE daylight
25 Feb - 22:53:14 10° NW 22:58:24 28° NNE 23:03:41 10° E daylight
